Weather History for North Adams, MA

Change the Weather History Date:

Wednesday, June 4, 2014

  Actual Average Record
Temperature  
Mean Temperature 66 °F -  
Max Temperature 75 °F 70 °F 84 °F (2005)
Min Temperature 57 °F 47 °F 36 °F (2002)
Cooling Degree Days 1    
Growing Degree Days 16 (Base 50)    
Moisture  
Dew Point 58 °F    
Average Humidity 80    
Maximum Humidity 97    
Minimum Humidity 41    
Precipitation  
Precipitation 0.00 in - - ()
Sea Level Pressure  
Sea Level Pressure 29.82 in    
Wind  
Wind Speed 3 mph (NNE)    
Max Wind Speed 9 mph    
Max Gust Speed 21 mph    
Visibility 8 miles    
Events Rain , Thunderstorm    
Averages and records for this station are not official NWS values.
T = Trace of Precipitation, MM = Missing Value Source: NWS Daily Summary

Daily Weather History Graph

Daily Weather History Graph

Search for Another Location

Airport:

Trip Planner

Search our weather history database for the weather conditions in past years. The results will help you decide how hot, cold, wet, or windy it might be!

Date:

Astronomy

Jun. 04, 2014 Rise Set
Actual Time 5:16 AM EDT 8:26 PM EDT
Civil Twilight 4:41 AM EDT 9:00 PM EDT
Nautical Twilight 3:57 AM EDT 9:45 PM EDT
Astronomical Twilight 3:04 AM EDT 10:38 PM EDT
Moon 11:39 AM EDT (6/4) 12:18 AM EDT (6/4)
Length of Visible Light 16h 19m
Length of Day
15h 10m
Waxing Crescent, 39% of the Moon is Illuminated
Jun 4
Waxing Crescent
Jun 5
First Quarter
Jun 13
Full
Jun 19
Last Quarter
Jun 27
New

Hourly Weather History & Observations

Time (EDT) Temp. Dew Point Humidity Pressure Visibility Wind Dir Wind Speed Gust Speed Precip Events Conditions
12:52 AM 66.0 °F 64.0 °F 93% 29.83 in 10.0 mi East 5.8 mph - N/A   Overcast
1:08 AM 66.0 °F 64.0 °F 93% 29.84 in 10.0 mi Variable 3.5 mph - N/A   Overcast
1:46 AM 64.4 °F 62.6 °F 94% 29.85 in 1.8 mi Variable 5.8 mph - 0.06 in Rain Heavy Rain
1:56 AM 64.9 °F 63.0 °F 93% 29.83 in 2.0 mi Calm Calm - 0.01 in Rain , Thunderstorm Rain
2:04 AM 64.0 °F 63.0 °F 96% 29.84 in 5.0 mi ENE 3.5 mph - 0.02 in Rain Light Rain
3:29 AM 62.1 °F 61.0 °F 96% 29.82 in 10.0 mi ENE 3.5 mph - N/A   Mostly Cloudy
3:52 AM 63.0 °F 62.1 °F 97% 29.82 in 8.0 mi Calm Calm - N/A   Overcast
4:04 AM 63.0 °F 61.0 °F 93% 29.83 in 8.0 mi Calm Calm - N/A   Overcast
4:38 AM 63.0 °F 61.0 °F 93% 29.84 in 8.0 mi East 4.6 mph - N/A   Overcast
5:05 AM 63.0 °F 61.0 °F 93% 29.84 in 7.0 mi East 3.5 mph - N/A   Overcast
5:52 AM 62.1 °F 61.0 °F 96% 29.85 in 9.0 mi Calm Calm - N/A   Overcast
6:20 AM 63.0 °F 62.1 °F 97% 29.85 in 4.0 mi Calm Calm - N/A   Overcast
6:34 AM 63.0 °F 62.1 °F 97% 29.85 in 5.0 mi Calm Calm - N/A   Overcast
6:41 AM 63.0 °F 62.1 °F 97% 29.85 in 5.0 mi Calm Calm - N/A   Overcast
6:52 AM 63.0 °F 62.1 °F 97% 29.85 in 7.0 mi Calm Calm - N/A   Overcast
7:08 AM 63.0 °F 61.0 °F 93% 29.85 in 10.0 mi Calm Calm - N/A   Overcast
7:52 AM 63.0 °F 59.0 °F 87% 29.86 in 10.0 mi WSW 3.5 mph - N/A   Overcast
8:52 AM 66.0 °F 57.9 °F 75% 29.87 in 10.0 mi Calm Calm - N/A   Overcast
9:52 AM 66.0 °F 59.0 °F 78% 29.87 in 10.0 mi Variable 4.6 mph - N/A   Overcast
10:52 AM 69.1 °F 57.9 °F 68% 29.85 in 10.0 mi Variable 3.5 mph - N/A   Partly Cloudy
11:52 AM 70.0 °F 55.0 °F 59% 29.83 in 10.0 mi Variable 6.9 mph - N/A   Clear
12:52 PM 72.0 °F 55.0 °F 55% 29.82 in 10.0 mi Variable 6.9 mph - N/A   Clear
1:52 PM 73.0 °F 52.0 °F 48% 29.79 in 10.0 mi West 4.6 mph - N/A   Clear
2:52 PM 73.0 °F 50.0 °F 44% 29.79 in 10.0 mi West 9.2 mph 20.7 mph N/A   Clear
3:52 PM 73.0 °F 48.9 °F 42% 29.78 in 10.0 mi Calm Calm - N/A   Clear
4:52 PM 73.0 °F 48.0 °F 41% 29.77 in 10.0 mi Variable 3.5 mph - N/A   Clear
5:52 PM 71.1 °F 50.0 °F 47% 29.76 in 10.0 mi West 3.5 mph - N/A   Clear
6:52 PM 68.0 °F 57.9 °F 70% 29.77 in 10.0 mi Variable 3.5 mph - N/A   Partly Cloudy
7:52 PM 66.0 °F 57.0 °F 73% 29.77 in 10.0 mi Calm Calm - N/A   Clear
8:52 PM 61.0 °F 55.9 °F 83% 29.78 in 10.0 mi Calm Calm - N/A   Clear
9:52 PM 59.0 °F 55.0 °F 87% 29.79 in 10.0 mi Calm Calm - N/A   Clear
10:52 PM 60.1 °F 54.0 °F 80% 29.78 in 10.0 mi Calm Calm - N/A   Clear
11:52 PM 57.9 °F 54.0 °F 87% 29.77 in 10.0 mi Calm Calm - N/A   Clear